DL4FEU Weather Reports


time (UTC)temp
C
wind
direction
speed
KPH
gust
KPH
rain 1hr
cm
rain 24hr
cm
rain mn
cm
humidity
%
barometer
mb
20260504010010 9 61 4.8 0.0 0.00 0.00 0.00 86 1017.7
20260504004524 9 62 6.4 0.0 0.00 0.00 0.00 86 1017.8
20260504003007 9 62 3.2 0.0 0.00 0.00 0.00 85 1017.9
20260504001516 10 62 6.4 0.0 0.00 0.00 0.00 85 1018.0
20260504000004 10 63 6.4 0.0 0.00 0.00 0.00 84 1017.7
20260503234600 10 63 8.0 0.0 0.00 0.00 0.00 84 1017.8
20260503233100 10 64 6.4 0.0 0.00 0.00 0.00 84 1018.0
20260503231555 11 65 6.4 0.0 0.00 0.00 0.00 84 1017.9
20260503230111 11 65 4.8 0.0 0.00 0.00 0.00 84 1017.9
20260503224550 11 67 6.4 0.0 0.00 0.00 0.00 84 1018.0
20260503223102 11 75 4.8 0.0 0.00 0.00 0.00 83 1018.0
20260503221550 12 96 4.8 0.0 0.00 0.00 0.00 83 1018.0
20260503220041 12 126 1.6 0.0 0.00 0.00 0.00 82 1017.6
20260503214552 13 127 1.6 0.0 0.00 0.00 0.00 81 1017.6
20260503213043 13 127 4.8 0.0 0.00 0.00 0.00 80 1017.7
20260503211541 13 128 0.0 0.0 0.00 0.00 0.00 78 1017.7
20260503210039 14 128 1.6 0.0 0.00 0.00 0.00 76 1017.5
20260503204543 15 204 0.0 0.0 0.00 0.00 0.00 73 1017.3
20260503203038 15 204 0.0 0.0 0.00 0.00 0.00 68 1017.4
20260503201541 16 204 3.2 0.0 0.00 0.00 0.00 63 1017.7
20260503200037 17 212 11.3 0.0 0.00 0.00 0.00 58 1017.7
20260503194542 17 230 14.5 0.0 0.00 0.00 0.00 53 1017.6
20260503193037 18 202 12.9 0.0 0.00 0.00 0.00 50 1017.6
20260503191536 18 208 12.9 0.0 0.00 0.00 0.00 49 1017.2
20260503190042 19 235 8.0 0.0 0.00 0.00 0.00 50 1016.9
20260503184535 20 242 11.3 0.0 0.00 0.00 0.00 48 1016.6
20260503183039 20 225 8.0 0.0 0.00 0.00 0.00 48 1016.6
20260503181553 20 250 1.6 0.0 0.00 0.00 0.00 47 1016.4
20260503180045 21 242 1.6 0.0 0.00 0.00 0.00 45 1016.1
20260503174534 21 241 1.6 0.0 0.00 0.00 0.00 43 1015.9
20260503173034 21 228 6.4 0.0 0.00 0.00 0.00 41 1015.8
20260503171533 22 217 1.6 0.0 0.00 0.00 0.00 39 1015.8
20260503081534 18 198 6.4 0.0 0.00 0.00 0.00 51 1018.9
20260503071519 15 58 0.0 0.0 0.00 0.00 0.00 70 1019.3
20260503054600 11 58 4.8 0.0 0.00 0.00 0.00 81 1018.7
20260503053057 11 58 3.2 0.0 0.00 0.00 0.00 81 1018.8
20260503051555 10 58 1.6 0.0 0.00 0.00 0.00 82 1018.7
20260503050053 10 58 3.2 0.0 0.00 0.00 0.00 82 1018.6
20260503044602 10 58 3.2 0.0 0.00 0.00 0.00 82 1018.6
20260503043053 10 58 0.0 0.0 0.00 0.00 0.00 82 1018.7
20260503041608 10 58 3.2 0.0 0.00 0.00 0.00 82 1018.3
20260503040038 9 58 8.0 0.0 0.00 0.00 0.00 83 1018.0
20260503034530 9 60 6.4 0.0 0.00 0.00 0.00 84 1018.4
20260503033028 9 60 8.0 0.0 0.00 0.00 0.00 85 1018.5
20260503031526 10 59 4.8 0.0 0.00 0.00 0.00 85 1018.4
20260503030025 10 59 4.8 0.0 0.00 0.00 0.00 85 1018.5
20260503024523 10 59 6.4 0.0 0.00 0.00 0.00 85 1018.4
20260503023020 10 61 8.0 0.0 0.00 0.00 0.00 85 1018.6
20260503021519 10 61 6.4 0.0 0.00 0.00 0.00 85 1018.9
20260503020015 11 61 6.4 0.0 0.00 0.00 0.00 84 1018.9
20260503014513 11 61 6.4 0.0 0.00 0.00 0.00 84 1018.9
20260503013012 11 61 6.4 0.0 0.00 0.00 0.00 84 1018.8
20260503011523 11 61 6.4 0.0 0.00 0.00 0.00 83 1018.9